C/2017 F2 ( PanSTARRS )

Japanese version
Home page
Updated on April 8, 2017

---------------------------------------------------------------------

* Profile

Discovery Date March 31, 2017
Magnitude 21.2 mag
Discoverer Pan-STARRS 1 telescope (Haleakala)

* Orbital Elements

Epoch 2017 Oct. 14.0 TT = JDT 2458040.5
T 2017 Oct. 6.56817 TT                                  MPCW
q   7.0296491            (2000.0)            P               Q
z  +0.0041515      Peri.  130.95626     -0.85885379     -0.29270555
 +/-0.0033752      Node    38.37005     -0.17700864     -0.60048177
e   0.9708163      Incl.   42.62342     +0.48066424     -0.74414052
From 24 observations 2017 Mar. 31-Apr. 6, mean residual 0".4.

* Magnitudes Graph

        m1 = 7.5 + 5 log d + 10.0 log r

---------------------------------------------------------------------

The orbital elements are published on M.P.E.C. 2017-G56.
The magnitudes graphs are made with Comet for Windows.

---------------------------------------------------------------------

Copyright(C) Seiichi Yoshida (comet@aerith.net). All rights reserved.